Location: Fours
(44.3167°N, 6.7000°E)
Time: 23:39:26
(UTC+00:00)

Meteor 2-10 Rocket - Pass Details

Date: 16 October 2021
Orbit: 733 x 885 km, 81.2° (Epoch: 26 November)

Event Time Altitude Azimuth Distance (km) Brightness Sun altitude
Rises 18:59:31 0° 181° (S) 3,451 6.8 -24.4°
Reaches altitude 10° 19:01:59 10° 179° (S) 2,504 6.0 -24.8°
Enters shadow 19:03:45 21° 176° (S) 1,847 5.3 -25.1°
Exits shadow 19:09:20 45° 30° (NNE) 1,143 4.2 -26.1°
Drops below altitude 10° 19:13:08 10° 15° (NNE) 2,433 6.1 -26.7°
Sets 19:15:30 0° 13° (NNE) 3,346 6.8 -27.1°
